| time (UTC) | temp F | wind direction | speed MPH | gust MPH | rain 1hr in | rain 24hr in | rain mn in | humidity % | barometer mb |
| 20260503015048 | 64 | 1 | 1.0 | 5.0 | 0.00 | 0.28 | 0.11 | 46 | 1020.1 |
| 20260503014602 | 64 | 1 | 2.0 | 5.0 | 0.00 | 0.28 | 0.11 | 46 | 1020.0 |
| 20260503014048 | 64 | 1 | 0.0 | 4.0 | 0.00 | 0.28 | 0.11 | 47 | 1020.0 |
| 20260503013548 | 64 | 1 | 2.0 | 4.0 | 0.00 | 0.28 | 0.11 | 46 | 1020.0 |
| 20260503013051 | 64 | 38 | 1.0 | 4.0 | 0.00 | 0.28 | 0.11 | 46 | 1019.9 |
| 20260503012548 | 64 | 38 | 0.0 | 2.0 | 0.00 | 0.28 | 0.11 | 45 | 1019.8 |
| 20260503012047 | 65 | 38 | 1.0 | 4.0 | 0.00 | 0.28 | 0.11 | 44 | 1019.8 |
| 20260503011554 | 65 | 79 | 0.0 | 3.0 | 0.00 | 0.28 | 0.11 | 46 | 1019.8 |
| 20260503011048 | 65 | 79 | 1.0 | 4.0 | 0.00 | 0.28 | 0.11 | 45 | 1019.7 |
| 20260503010547 | 65 | 34 | 1.0 | 4.0 | 0.00 | 0.28 | 0.11 | 45 | 1019.6 |
| 20260503005550 | 66 | 353 | 3.0 | 9.0 | 0.00 | 0.28 | 0.11 | 45 | 1019.7 |
| 20260503005046 | 66 | 19 | 3.0 | 9.0 | 0.00 | 0.28 | 0.11 | 44 | 1019.7 |
| 20260503004546 | 66 | 348 | 3.0 | 7.0 | 0.00 | 0.28 | 0.11 | 44 | 1019.7 |
| 20260503004046 | 66 | 9 | 2.0 | 8.0 | 0.00 | 0.28 | 0.11 | 45 | 1019.8 |
| 20260503003546 | 65 | 12 | 4.0 | 8.0 | 0.00 | 0.28 | 0.11 | 45 | 1019.7 |
| 20260503003056 | 66 | 290 | 4.0 | 6.0 | 0.00 | 0.28 | 0.11 | 45 | 1019.7 |
| 20260503002545 | 66 | 334 | 2.0 | 6.0 | 0.00 | 0.28 | 0.11 | 46 | 1019.7 |
| 20260503002045 | 66 | 300 | 1.0 | 5.0 | 0.00 | 0.28 | 0.11 | 44 | 1019.8 |
| 20260503001545 | 66 | 261 | 1.0 | 5.0 | 0.00 | 0.28 | 0.11 | 45 | 1019.7 |
| 20260503001046 | 66 | 330 | 1.0 | 5.0 | 0.00 | 0.28 | 0.11 | 44 | 1019.7 |
| 20260503000543 | 67 | 14 | 1.0 | 8.0 | 0.00 | 0.28 | 0.11 | 44 | 1019.7 |
| 20260503000047 | 67 | 353 | 2.0 | 8.0 | 0.00 | 0.28 | 0.11 | 44 | 1019.6 |
| 20260502235544 | 67 | 354 | 4.0 | 8.0 | 0.00 | 0.28 | 0.11 | 45 | 1019.6 |
| 20260502235041 | 66 | 330 | 0.0 | 7.0 | 0.00 | 0.28 | 0.11 | 45 | 1019.7 |
| 20260502234541 | 67 | 350 | 3.0 | 8.0 | 0.00 | 0.28 | 0.11 | 44 | 1019.6 |
| 20260502234043 | 68 | 14 | 4.0 | 7.0 | 0.00 | 0.28 | 0.11 | 43 | 1019.6 |
| 20260502233540 | 68 | 17 | 4.0 | 10.0 | 0.00 | 0.28 | 0.11 | 43 | 1019.6 |
| 20260502233040 | 69 | 11 | 5.0 | 10.0 | 0.00 | 0.28 | 0.11 | 42 | 1019.6 |
| 20260502232539 | 69 | 3 | 1.0 | 6.0 | 0.00 | 0.28 | 0.11 | 43 | 1019.5 |
| 20260502232039 | 69 | 34 | 0.0 | 3.0 | 0.00 | 0.28 | 0.11 | 43 | 1019.6 |
| 20260502231538 | 68 | 12 | 1.0 | 5.0 | 0.00 | 0.28 | 0.11 | 42 | 1019.7 |
| 20260502231037 | 68 | 291 | 2.0 | 5.0 | 0.00 | 0.28 | 0.11 | 42 | 1019.7 |
| 20260502230539 | 68 | 93 | 0.0 | 4.0 | 0.00 | 0.28 | 0.11 | 40 | 1019.7 |
| 20260502230037 | 68 | 19 | 0.0 | 9.0 | 0.00 | 0.28 | 0.11 | 42 | 1019.7 |
| 20260502225535 | 69 | 38 | 2.0 | 9.0 | 0.00 | 0.28 | 0.11 | 43 | 1019.7 |
| 20260502225035 | 67 | 115 | 3.0 | 6.0 | 0.00 | 0.28 | 0.11 | 45 | 1019.7 |
| 20260502224535 | 67 | 74 | 0.0 | 7.0 | 0.00 | 0.28 | 0.11 | 44 | 1019.8 |
| 20260502224035 | 67 | 155 | 3.0 | 8.0 | 0.00 | 0.28 | 0.11 | 44 | 1019.8 |
| 20260502223538 | 67 | 180 | 2.0 | 8.0 | 0.00 | 0.28 | 0.11 | 43 | 1019.8 |
| 20260502223034 | 66 | 153 | 3.0 | 8.0 | 0.00 | 0.28 | 0.11 | 44 | 1019.8 |
| 20260502222534 | 66 | 181 | 1.0 | 7.0 | 0.00 | 0.28 | 0.11 | 44 | 1019.9 |
| 20260502222034 | 67 | 144 | 3.0 | 7.0 | 0.00 | 0.28 | 0.11 | 44 | 1019.9 |
| 20260502221533 | 66 | 117 | 0.0 | 6.0 | 0.00 | 0.28 | 0.11 | 46 | 1020.0 |
| 20260502221035 | 66 | 154 | 2.0 | 7.0 | 0.00 | 0.28 | 0.11 | 46 | 1020.0 |
| 20260502220533 | 67 | 132 | 4.0 | 7.0 | 0.00 | 0.28 | 0.11 | 43 | 1020.2 |
| 20260502220034 | 67 | 194 | 1.0 | 7.0 | 0.00 | 0.28 | 0.11 | 45 | 1020.3 |
| 20260502215531 | 66 | 250 | 3.0 | 7.0 | 0.00 | 0.28 | 0.11 | 45 | 1020.4 |
| 20260502215032 | 67 | 214 | 4.0 | 7.0 | 0.00 | 0.28 | 0.11 | 45 | 1020.5 |
| 20260502214531 | 66 | 140 | 2.0 | 5.0 | 0.00 | 0.28 | 0.11 | 46 | 1020.6 |
| 20260502214033 | 66 | 51 | 1.0 | 4.0 | 0.00 | 0.28 | 0.11 | 48 | 1020.6 |
| 20260502213531 | 65 | 19 | 2.0 | 5.0 | 0.00 | 0.28 | 0.11 | 47 | 1020.7 |
| 20260502213039 | 66 | 115 | 0.0 | 5.0 | 0.00 | 0.28 | 0.11 | 47 | 1020.8 |
| 20260502212530 | 66 | 42 | 0.0 | 6.0 | 0.00 | 0.28 | 0.11 | 47 | 1020.9 |
| 20260502212029 | 66 | 317 | 2.0 | 6.0 | 0.00 | 0.28 | 0.11 | 46 | 1020.9 |
| 20260502211531 | 65 | 78 | 1.0 | 3.0 | 0.00 | 0.28 | 0.11 | 48 | 1021.0 |
| 20260502211028 | 65 | 90 | 1.0 | 7.0 | 0.00 | 0.28 | 0.11 | 49 | 1021.1 |
| 20260502210527 | 65 | 63 | 2.0 | 7.0 | 0.00 | 0.28 | 0.11 | 48 | 1021.2 |
| 20260502210027 | 65 | 95 | 1.0 | 7.0 | 0.00 | 0.28 | 0.11 | 49 | 1021.2 |
| 20260502205526 | 65 | 57 | 3.0 | 7.0 | 0.00 | 0.28 | 0.11 | 50 | 1021.3 |
| 20260502205026 | 65 | 57 | 3.0 | 7.0 | 0.00 | 0.28 | 0.11 | 51 | 1021.3 |
| 20260502204526 | 64 | 144 | 1.0 | 9.0 | 0.00 | 0.28 | 0.11 | 50 | 1021.4 |
| 20260502204026 | 65 | 119 | 5.0 | 9.0 | 0.00 | 0.28 | 0.11 | 51 | 1021.5 |
| 20260502203524 | 64 | 136 | 2.0 | 7.0 | 0.00 | 0.28 | 0.11 | 51 | 1021.6 |
| 20260502203024 | 64 | 205 | 3.0 | 7.0 | 0.00 | 0.28 | 0.11 | 50 | 1021.5 |
| 20260502202526 | 63 | 249 | 0.0 | 4.0 | 0.00 | 0.28 | 0.11 | 52 | 1021.7 |
| 20260502202024 | 64 | 9 | 1.0 | 6.0 | 0.00 | 0.28 | 0.11 | 49 | 1021.8 |
| 20260502201527 | 64 | 4 | 3.0 | 6.0 | 0.00 | 0.28 | 0.11 | 51 | 1021.9 |
| 20260502201023 | 64 | 357 | 2.0 | 6.0 | 0.00 | 0.28 | 0.11 | 50 | 1022.0 |
| 20260502200523 | 63 | 344 | 1.0 | 7.0 | 0.00 | 0.28 | 0.11 | 50 | 1022.0 |
| 20260502200022 | 64 | 47 | 2.0 | 7.0 | 0.00 | 0.28 | 0.11 | 51 | 1022.1 |
| 20260502195521 | 62 | 346 | 1.0 | 5.0 | 0.00 | 0.28 | 0.11 | 52 | 1022.2 |
| 20260502195020 | 62 | 354 | 1.0 | 5.0 | 0.00 | 0.28 | 0.11 | 51 | 1022.2 |
| 20260502194522 | 62 | 348 | 3.0 | 6.0 | 0.00 | 0.28 | 0.11 | 53 | 1022.2 |
| 20260502194020 | 62 | 305 | 2.0 | 6.0 | 0.00 | 0.28 | 0.11 | 53 | 1022.4 |
| 20260502193520 | 62 | 145 | 0.0 | 4.0 | 0.00 | 0.28 | 0.11 | 53 | 1022.5 |
| 20260502193020 | 62 | 178 | 0.0 | 4.0 | 0.00 | 0.28 | 0.11 | 53 | 1022.5 |
| 20260502192519 | 62 | 178 | 1.0 | 3.0 | 0.00 | 0.28 | 0.11 | 52 | 1022.6 |
| 20260502192020 | 61 | 184 | 1.0 | 5.0 | 0.00 | 0.28 | 0.11 | 53 | 1022.6 |
| 20260502191523 | 61 | 165 | 2.0 | 6.0 | 0.00 | 0.28 | 0.11 | 54 | 1022.7 |
| 20260502191019 | 62 | 281 | 1.0 | 4.0 | 0.00 | 0.28 | 0.11 | 53 | 1022.7 |
| 20260502190519 | 61 | 281 | 0.0 | 3.0 | 0.00 | 0.28 | 0.11 | 53 | 1022.7 |
| 20260502190022 | 61 | 281 | 1.0 | 5.0 | 0.00 | 0.28 | 0.11 | 53 | 1022.7 |
| 20260502185518 | 62 | 286 | 2.0 | 6.0 | 0.00 | 0.28 | 0.11 | 52 | 1022.8 |
| 20260502185018 | 62 | 343 | 1.0 | 6.0 | 0.00 | 0.28 | 0.11 | 52 | 1022.8 |
| 20260502184525 | 62 | 336 | 2.0 | 7.0 | 0.00 | 0.28 | 0.11 | 54 | 1022.9 |
| 20260502184017 | 62 | 323 | 1.0 | 7.0 | 0.00 | 0.28 | 0.11 | 55 | 1022.9 |
| 20260502183517 | 61 | 15 | 1.0 | 6.0 | 0.00 | 0.28 | 0.11 | 57 | 1023.0 |
| 20260502183016 | 60 | 298 | 3.0 | 6.0 | 0.00 | 0.28 | 0.11 | 54 | 1023.0 |
| 20260502182515 | 60 | 240 | 1.0 | 6.0 | 0.00 | 0.28 | 0.11 | 55 | 1023.0 |
| 20260502182015 | 60 | 187 | 0.0 | 6.0 | 0.00 | 0.28 | 0.11 | 55 | 1023.1 |
| 20260502181515 | 61 | 213 | 2.0 | 6.0 | 0.00 | 0.28 | 0.11 | 56 | 1023.1 |
| 20260502181014 | 61 | 99 | 2.0 | 6.0 | 0.00 | 0.28 | 0.11 | 57 | 1023.1 |
| 20260502180514 | 61 | 195 | 0.0 | 7.0 | 0.00 | 0.28 | 0.11 | 58 | 1023.2 |
| 20260502170502 | 55 | 227 | 1.0 | 4.0 | 0.00 | 0.28 | 0.11 | 67 | 1023.7 |
| 20260502164058 | 54 | 227 | 0.0 | 1.0 | 0.00 | 0.28 | 0.11 | 71 | 1023.6 |
| 20260502163556 | 54 | 227 | 0.0 | 1.0 | 0.00 | 0.28 | 0.11 | 71 | 1023.6 |
| 20260502163056 | 54 | 227 | 0.0 | 2.0 | 0.00 | 0.28 | 0.11 | 75 | 1023.6 |
| 20260502162555 | 53 | 227 | 0.0 | 2.0 | 0.00 | 0.28 | 0.11 | 71 | 1023.6 |
| 20260502162056 | 54 | 227 | 0.0 | 2.0 | 0.00 | 0.28 | 0.11 | 72 | 1023.5 |
| 20260502161558 | 53 | 227 | 0.0 | 2.0 | 0.00 | 0.28 | 0.11 | 74 | 1023.5 |
| 20260502161053 | 53 | 227 | 0.0 | 4.0 | 0.00 | 0.28 | 0.11 | 74 | 1023.6 |
| 20260502160553 | 53 | 227 | 0.0 | 5.0 | 0.00 | 0.28 | 0.11 | 75 | 1023.6 |
| 20260502152045 | 51 | 227 | 1.0 | 5.0 | 0.00 | 0.28 | 0.11 | 81 | 1023.3 |
| 20260502151600 | 51 | 227 | 1.0 | 5.0 | 0.00 | 0.28 | 0.11 | 82 | 1023.3 |
| 20260502151044 | 51 | 215 | 3.0 | 5.0 | 0.00 | 0.28 | 0.11 | 82 | 1023.3 |
| 20260502150544 | 51 | 238 | 2.0 | 6.0 | 0.00 | 0.28 | 0.11 | 83 | 1023.2 |
| 20260502130600 | 49 | 292 | 0.0 | 3.0 | 0.00 | 0.30 | 0.10 | 91 | 1022.4 |
| 20260502130104 | 49 | 292 | 2.0 | 3.0 | 0.00 | 0.30 | 0.10 | 91 | 1022.3 |
| 20260502123555 | 48 | 331 | 0.0 | 7.0 | 0.00 | 0.32 | 0.10 | 90 | 1021.9 |
| 20260502123054 | 49 | 296 | 4.0 | 7.0 | 0.00 | 0.32 | 0.10 | 91 | 1021.9 |
| 20260502122554 | 49 | 296 | 2.0 | 6.0 | 0.00 | 0.32 | 0.10 | 91 | 1021.9 |
| 20260502122053 | 49 | 296 | 3.0 | 6.0 | 0.00 | 0.32 | 0.10 | 91 | 1021.9 |
| 20260502121553 | 49 | 304 | 1.0 | 7.0 | 0.00 | 0.32 | 0.10 | 91 | 1021.9 |
| 20260502121054 | 49 | 298 | 3.0 | 7.0 | 0.00 | 0.32 | 0.10 | 90 | 1021.7 |
| 20260502120555 | 49 | 305 | 3.0 | 6.0 | 0.00 | 0.32 | 0.10 | 90 | 1021.6 |
| 20260502115550 | 48 | 302 | 3.0 | 7.0 | 0.00 | 0.32 | 0.10 | 90 | 1021.5 |
| 20260502115050 | 49 | 307 | 2.0 | 7.0 | 0.00 | 0.32 | 0.10 | 90 | 1021.4 |
| 20260502114554 | 49 | 310 | 1.0 | 8.0 | 0.01 | 0.32 | 0.10 | 90 | 1021.3 |
| 20260502114050 | 49 | 311 | 3.0 | 8.0 | 0.02 | 0.32 | 0.10 | 90 | 1021.3 |
| 20260502113549 | 49 | 286 | 1.0 | 5.0 | 0.02 | 0.32 | 0.10 | 90 | 1021.3 |
| 20260502113051 | 49 | 286 | 0.0 | 4.0 | 0.02 | 0.32 | 0.10 | 91 | 1021.3 |
| 20260502112548 | 49 | 286 | 1.0 | 6.0 | 0.03 | 0.32 | 0.10 | 90 | 1021.3 |
| 20260502112048 | 49 | 286 | 3.0 | 6.0 | 0.03 | 0.32 | 0.10 | 90 | 1021.4 |
| 20260502111548 | 49 | 286 | 1.0 | 4.0 | 0.03 | 0.32 | 0.10 | 90 | 1021.4 |
| 20260502111048 | 49 | 286 | 1.0 | 4.0 | 0.03 | 0.32 | 0.10 | 90 | 1021.4 |
| 20260502110551 | 49 | 286 | 1.0 | 4.0 | 0.03 | 0.32 | 0.10 | 90 | 1021.4 |
| 20260502110055 | 49 | 265 | 0.0 | 2.0 | 0.03 | 0.32 | 0.10 | 89 | 1021.3 |
| 20260502105547 | 49 | 265 | 0.0 | 2.0 | 0.04 | 0.44 | 0.10 | 89 | 1021.3 |
| 20260502105046 | 49 | 265 | 0.0 | 2.0 | 0.03 | 0.43 | 0.09 | 88 | 1021.4 |
| 20260502104549 | 49 | 265 | 0.0 | 4.0 | 0.04 | 0.43 | 0.09 | 88 | 1021.4 |
| 20260502104048 | 49 | 265 | 1.0 | 5.0 | 0.04 | 0.42 | 0.08 | 88 | 1021.4 |
| 20260502103546 | 49 | 260 | 1.0 | 6.0 | 0.04 | 0.42 | 0.08 | 89 | 1021.4 |
| 20260502103046 | 49 | 260 | 1.0 | 6.0 | 0.04 | 0.42 | 0.08 | 88 | 1021.5 |
| 20260502102546 | 49 | 294 | 1.0 | 6.0 | 0.03 | 0.41 | 0.07 | 89 | 1021.5 |
| 20260502102046 | 49 | 293 | 3.0 | 6.0 | 0.03 | 0.41 | 0.07 | 88 | 1021.6 |
| 20260502101549 | 49 | 276 | 4.0 | 6.0 | 0.03 | 0.41 | 0.07 | 88 | 1021.6 |
| 20260502101046 | 49 | 262 | 3.0 | 6.0 | 0.03 | 0.41 | 0.07 | 88 | 1021.6 |
| 20260502100543 | 49 | 276 | 3.0 | 6.0 | 0.04 | 0.41 | 0.07 | 87 | 1021.5 |
| 20260502091033 | 51 | 210 | 0.0 | 1.0 | 0.04 | 0.53 | 0.04 | 85 | 1020.8 |
| 20260502090536 | 51 | 210 | 0.0 | 1.0 | 0.03 | 0.52 | 0.03 | 84 | 1020.8 |
| 20260502071523 | 53 | 254 | 0.0 | 5.0 | 0.00 | 0.49 | 0.00 | 80 | 1020.5 |
| 20260502071023 | 53 | 254 | 0.0 | 5.0 | 0.00 | 0.49 | 0.00 | 80 | 1020.5 |
| 20260502070522 | 52 | 254 | 1.0 | 6.0 | 0.00 | 0.49 | 0.00 | 80 | 1020.6 |
| 20260502070021 | 52 | 254 | 4.0 | 7.0 | 0.00 | 0.49 | 0.00 | 82 | 1020.7 |
| 20260502065521 | 52 | 224 | 4.0 | 7.0 | 0.00 | 0.49 | 0.00 | 84 | 1020.5 |
| 20260502065019 | 52 | 245 | 5.0 | 8.0 | 0.00 | 0.49 | 0.00 | 85 | 1020.5 |
| 20260502064537 | 53 | 276 | 4.0 | 8.0 | 0.00 | 0.49 | 0.00 | 85 | 1020.5 |
| 20260502064021 | 53 | 265 | 3.0 | 6.0 | 0.00 | 0.49 | 0.00 | 85 | 1020.4 |
| 20260502063516 | 53 | 213 | 1.0 | 6.0 | 0.00 | 0.49 | 0.00 | 84 | 1020.2 |
| 20260502063020 | 53 | 213 | 3.0 | 6.0 | 0.00 | 0.49 | 0.00 | 84 | 1020.1 |
| 20260502062517 | 53 | 191 | 4.0 | 6.0 | 0.00 | 0.49 | 0.00 | 83 | 1020.0 |
| 20260502062017 | 53 | 207 | 2.0 | 6.0 | 0.00 | 0.49 | 0.00 | 83 | 1020.0 |
| 20260502061513 | 53 | 207 | 3.0 | 6.0 | 0.00 | 0.49 | 0.00 | 83 | 1019.9 |
| 20260502061011 | 53 | 237 | 4.0 | 7.0 | 0.00 | 0.49 | 0.00 | 82 | 1019.8 |
| 20260502060511 | 53 | 242 | 4.0 | 7.0 | 0.00 | 0.49 | 0.00 | 82 | 1019.8 |
| 20260502060010 | 53 | 208 | 2.0 | 6.0 | 0.00 | 0.49 | 0.00 | 82 | 1019.7 |
| 20260502055510 | 53 | 208 | 3.0 | 6.0 | 0.00 | 0.49 | 0.49 | 82 | 1019.7 |
| 20260502055009 | 53 | 186 | 2.0 | 6.0 | 0.00 | 0.49 | 0.49 | 82 | 1019.7 |
| 20260502054509 | 53 | 186 | 1.0 | 6.0 | 0.00 | 0.49 | 0.49 | 83 | 1019.7 |
| 20260502054009 | 53 | 186 | 1.0 | 6.0 | 0.00 | 0.49 | 0.49 | 84 | 1019.6 |
| 20260502053509 | 53 | 186 | 2.0 | 6.0 | 0.00 | 0.49 | 0.49 | 85 | 1019.6 |
| 20260502053009 | 53 | 186 | 2.0 | 5.0 | 0.00 | 0.49 | 0.49 | 86 | 1019.7 |
| 20260502052509 | 53 | 186 | 1.0 | 6.0 | 0.00 | 0.49 | 0.49 | 86 | 1019.7 |
| 20260502052009 | 53 | 186 | 3.0 | 6.0 | 0.00 | 0.49 | 0.49 | 86 | 1019.6 |
| 20260502051508 | 53 | 215 | 1.0 | 5.0 | 0.00 | 0.49 | 0.49 | 86 | 1019.7 |
| 20260502051006 | 53 | 215 | 3.0 | 7.0 | 0.00 | 0.49 | 0.49 | 86 | 1019.5 |
| 20260502050506 | 53 | 247 | 3.0 | 7.0 | 0.00 | 0.49 | 0.49 | 85 | 1019.5 |
| 20260502050012 | 53 | 258 | 4.0 | 8.0 | 0.00 | 0.49 | 0.49 | 85 | 1019.4 |
| 20260502045505 | 53 | 268 | 3.0 | 8.0 | 0.00 | 0.49 | 0.49 | 86 | 1019.3 |
| 20260502045006 | 53 | 317 | 4.0 | 7.0 | 0.00 | 0.49 | 0.49 | 85 | 1019.1 |
| 20260502044507 | 53 | 315 | 3.0 | 6.0 | 0.00 | 0.49 | 0.49 | 86 | 1019.0 |
| 20260502044002 | 53 | 309 | 3.0 | 5.0 | 0.00 | 0.49 | 0.49 | 86 | 1019.1 |
| 20260502043502 | 53 | 313 | 1.0 | 5.0 | 0.00 | 0.49 | 0.49 | 86 | 1019.0 |
| 20260502043002 | 53 | 313 | 1.0 | 7.0 | 0.00 | 0.49 | 0.49 | 86 | 1019.0 |
| 20260502042503 | 54 | 294 | 3.0 | 7.0 | 0.00 | 0.49 | 0.49 | 87 | 1019.0 |
| 20260502042002 | 54 | 316 | 3.0 | 7.0 | 0.00 | 0.49 | 0.49 | 88 | 1018.9 |
| 20260502041502 | 54 | 319 | 3.0 | 6.0 | 0.00 | 0.49 | 0.49 | 88 | 1018.9 |
| 20260502041000 | 55 | 315 | 3.0 | 6.0 | 0.00 | 0.49 | 0.49 | 88 | 1018.9 |
| 20260502040500 | 55 | 321 | 4.0 | 7.0 | 0.00 | 0.49 | 0.49 | 88 | 1018.8 |
| 20260502040108 | 55 | 330 | 3.0 | 7.0 | 0.00 | 0.49 | 0.49 | 88 | 1018.8 |
| 20260502035559 | 55 | 306 | 2.0 | 5.0 | 0.00 | 0.49 | 0.49 | 87 | 1018.7 |
| 20260502035103 | 55 | 306 | 2.0 | 6.0 | 0.00 | 0.49 | 0.49 | 87 | 1018.7 |
| 20260502034559 | 55 | 306 | 3.0 | 6.0 | 0.00 | 0.49 | 0.49 | 87 | 1018.6 |
| 20260502034058 | 55 | 276 | 2.0 | 5.0 | 0.00 | 0.49 | 0.49 | 87 | 1018.6 |
| 20260502033557 | 55 | 231 | 1.0 | 4.0 | 0.00 | 0.49 | 0.49 | 85 | 1018.4 |
| 20260502033059 | 55 | 215 | 1.0 | 4.0 | 0.00 | 0.49 | 0.49 | 86 | 1018.4 |
| 20260502032559 | 54 | 215 | 0.0 | 2.0 | 0.00 | 0.49 | 0.49 | 87 | 1018.2 |
| 20260502032057 | 55 | 215 | 0.0 | 4.0 | 0.00 | 0.49 | 0.49 | 86 | 1018.2 |
| 20260502031629 | 55 | 215 | 0.0 | 5.0 | 0.00 | 0.49 | 0.49 | 86 | 1018.4 |
| 20260502031056 | 55 | 215 | 2.0 | 7.0 | 0.01 | 0.49 | 0.49 | 85 | 1018.4 |
| 20260502030557 | 55 | 215 | 3.0 | 7.0 | 0.01 | 0.49 | 0.49 | 84 | 1018.4 |
| 20260502030059 | 55 | 188 | 3.0 | 9.0 | 0.01 | 0.49 | 0.49 | 82 | 1018.4 |
| 20260502025554 | 55 | 164 | 2.0 | 9.0 | 0.01 | 0.49 | 0.49 | 83 | 1018.3 |
| 20260502025054 | 55 | 179 | 1.0 | 4.0 | 0.01 | 0.49 | 0.49 | 82 | 1018.3 |
| 20260502024554 | 55 | 184 | 1.0 | 6.0 | 0.01 | 0.49 | 0.49 | 84 | 1018.3 |
| 20260502024053 | 55 | 172 | 3.0 | 7.0 | 0.01 | 0.49 | 0.49 | 86 | 1018.2 |
| 20260502023554 | 55 | 148 | 3.0 | 8.0 | 0.01 | 0.49 | 0.49 | 87 | 1018.1 |
| 20260502023055 | 55 | 127 | 3.0 | 8.0 | 0.03 | 0.49 | 0.49 | 88 | 1017.9 |
| 20260502022551 | 55 | 141 | 4.0 | 7.0 | 0.08 | 0.49 | 0.49 | 88 | 1017.7 |
| 20260502022051 | 55 | 109 | 0.0 | 6.0 | 0.14 | 0.49 | 0.49 | 88 | 1017.7 |
| 20260502021552 | 55 | 109 | 2.0 | 6.0 | 0.13 | 0.48 | 0.48 | 87 | 1017.5 |
| 20260502021052 | 55 | 109 | 3.0 | 6.0 | 0.14 | 0.48 | 0.48 | 87 | 1017.3 |
| 20260502020551 | 55 | 38 | 0.0 | 3.0 | 0.14 | 0.48 | 0.48 | 88 | 1017.4 |
| 20260502020107 | 55 | 38 | 2.0 | 3.0 | 0.16 | 0.48 | 0.48 | 87 | 1017.5 |
| 20260502015555 | 55 | 13 | 0.0 | 6.0 | 0.17 | 0.48 | 0.48 | 87 | 1017.5 |